EW5291 Weather Reports


Display with metric or nautical units.
time (UTC)temp
F
wind
direction
speed
MPH
gust
MPH
rain 1hr
in
rain 24hr
in
rain mn
in
humidity
%
barometer
mb
20260502194604 51 190 0.0 0.0 0.00 0.38 0.38 79 1010.3
20260502194004 52 0 0.0 0.0 0.00 0.38 0.38 79 1009.7
20260502193504 52 0 0.0 0.0 0.00 0.38 0.38 79 1009.7
20260502193103 51 190 0.0 0.0 0.00 0.38 0.38 78 1010.3
20260502193004 52 0 0.0 0.0 0.00 0.38 0.38 79 1009.7
20260502192505 52 0 0.0 0.0 0.00 0.38 0.38 79 1009.7
20260502192004 52 0 0.0 0.0 0.00 0.38 0.38 78 1009.8
20260502191621 51 190 0.0 0.0 0.01 0.38 0.38 78 1010.5
20260502191504 52 0 0.0 0.0 0.01 0.38 0.38 78 1009.8
20260502191004 52 0 0.0 0.0 0.01 0.38 0.38 79 1009.9
20260502190504 52 0 0.0 0.0 0.01 0.38 0.38 78 1009.8
20260502190112 51 190 0.0 0.0 0.01 0.38 0.38 78 1010.5
20260502190005 52 0 0.0 0.0 0.01 0.38 0.38 78 1009.9
20260502185505 52 0 0.0 0.0 0.01 0.38 0.38 79 1009.9
20260502185004 52 0 0.0 0.0 0.01 0.38 0.38 80 1009.9
20260502184603 51 190 0.0 0.0 0.01 0.38 0.38 79 1010.5
20260502184504 52 0 0.0 0.0 0.01 0.38 0.38 79 1009.9
20260502183105 51 190 0.0 0.0 0.02 0.38 0.38 79 1010.5
20260502183005 51 0 0.0 0.0 0.02 0.38 0.38 79 1009.9
20260502182504 51 0 0.0 0.0 0.03 0.38 0.38 79 1009.9
20260502181605 51 190 0.0 0.0 0.03 0.37 0.37 80 1010.6
20260502181504 51 0 0.0 0.0 0.03 0.37 0.37 79 1010.0
20260502180115 51 190 0.0 0.0 0.03 0.37 0.37 80 1010.6
20260502170504 49 0 0.0 0.0 0.05 0.34 0.34 78 1010.2
20260502170104 49 190 0.0 0.0 0.05 0.34 0.34 78 1010.8
20260502164004 51 0 0.0 0.0 0.03 0.32 0.32 75 1010.2
20260502163504 52 0 0.0 0.0 0.02 0.31 0.31 72 1010.1
20260502163112 52 190 0.0 0.0 0.01 0.30 0.30 69 1010.8
20260502163005 53 0 0.0 0.0 0.01 0.30 0.30 69 1010.2
20260502162505 55 0 0.0 0.0 0.00 0.29 0.29 66 1010.1
20260502162004 55 0 0.0 0.0 0.00 0.29 0.29 65 1010.0
20260502161604 55 190 0.0 0.0 0.00 0.28 0.28 64 1010.6
20260502161504 55 0 0.0 0.0 0.00 0.29 0.29 63 1010.0
20260502161004 56 0 0.0 0.0 0.00 0.29 0.29 63 1010.0
20260502160504 56 0 0.0 0.0 0.00 0.29 0.29 64 1010.1
20260502160107 55 190 0.0 0.0 0.00 0.28 0.28 64 1010.7
20260502152004 56 0 0.0 0.0 0.00 0.29 0.29 67 1010.3
20260502151623 55 190 0.0 0.0 0.00 0.28 0.28 74 1011.0
20260502151004 54 0 0.0 0.0 0.00 0.29 0.29 71 1010.6
20260502150504 53 0 0.0 0.0 0.00 0.29 0.29 72 1010.6
20260502150106 53 190 0.0 0.0 0.00 0.28 0.28 72 1011.2
20260502130504 50 0 0.0 0.0 0.00 0.29 0.29 82 1011.0
20260502130110 49 190 0.0 0.0 0.00 0.28 0.28 82 1011.6
20260502123505 48 0 0.0 0.0 0.00 0.29 0.29 82 1010.9
20260502123106 48 190 0.0 0.0 0.05 0.30 0.28 82 1011.6
20260502123005 48 0 0.0 0.0 0.00 0.29 0.29 82 1011.0
20260502122505 48 0 0.0 0.0 0.00 0.29 0.29 82 1011.1
20260502122005 48 0 0.0 0.0 0.00 0.29 0.29 82 1011.3
20260502121603 47 190 0.0 0.0 0.10 0.30 0.28 82 1011.8
20260502121504 48 0 0.0 0.0 0.00 0.29 0.29 82 1011.1
20260502121004 47 0 0.0 0.0 0.00 0.29 0.29 82 1011.0
20260502120104 46 190 0.0 0.0 0.14 0.30 0.28 82 1011.7
20260502115504 46 0 0.0 0.0 0.14 0.29 0.29 82 1011.3
20260502114551 46 190 0.0 0.0 0.12 0.28 0.27 82 1012.1
20260502113052 46 190 0.0 0.0 0.12 0.24 0.23 82 1012.1
20260502111550 45 190 0.0 0.0 0.12 0.20 0.19 82 1012.2
20260502110048 45 190 0.0 0.0 0.09 0.16 0.15 82 1011.9
20260502104547 45 190 0.0 0.0 0.09 0.16 0.15 82 1011.9
20260502103046 45 190 0.0 0.0 0.05 0.12 0.11 82 1012.3
20260502101544 45 190 0.0 0.0 0.01 0.08 0.07 82 1011.8
20260502070046 46 190 0.0 0.0 0.00 0.02 0.01 81 1011.3
20260502064543 46 190 0.0 0.0 0.01 0.02 0.01 81 1010.9
20260502063032 46 190 0.0 0.0 0.01 0.02 0.01 81 1011.0
20260502061531 46 190 0.0 0.0 0.01 0.02 0.01 80 1011.0
20260502060030 47 190 0.0 0.0 0.01 0.02 0.01 79 1011.5
20260502054528 47 190 0.0 0.0 0.00 0.01 0.00 78 1011.6
20260502053026 47 190 0.0 0.0 0.00 0.01 0.00 75 1011.2
20260502051527 47 190 0.0 0.0 0.00 0.01 0.00 72 1011.5
20260502050024 47 190 0.0 0.0 0.00 0.01 0.00 71 1011.5
20260502044520 47 190 0.0 0.0 0.00 0.01 0.00 70 1011.1
20260502043019 47 190 0.0 0.0 0.00 0.01 0.00 69 1011.2
20260502041518 47 190 0.0 0.0 0.00 0.01 0.00 69 1011.2
20260502040015 47 190 0.0 0.0 0.00 0.01 0.00 67 1011.3
20260502034527 47 190 0.0 0.0 0.00 0.01 0.01 67 1011.4
20260502033506 47 0 0.0 0.0 0.00 0.00 0.00 66 1010.7
20260502033104 47 190 0.0 0.0 0.00 0.01 0.01 67 1011.5
20260502032506 47 0 0.0 0.0 0.00 0.00 0.00 68 1010.8
20260502032005 48 0 0.0 0.0 0.00 0.00 0.00 69 1010.7
20260502031604 47 190 0.0 0.0 0.00 0.01 0.01 67 1011.4
20260502031507 47 0 0.0 0.0 0.00 0.00 0.00 67 1010.7
20260502031005 47 0 0.0 0.0 0.00 0.00 0.00 66 1010.7
20260502030505 47 0 0.0 0.0 0.00 0.01 0.00 67 1010.8
20260502030108 47 190 0.0 0.0 0.00 0.01 0.01 65 1011.4
20260502030005 47 0 0.0 0.0 0.00 0.01 0.00 65 1010.8
20260502025505 47 0 0.0 0.0 0.00 0.01 0.00 65 1010.7
20260502025006 48 0 0.0 0.0 0.00 0.01 0.00 64 1010.7
20260502024608 47 190 0.0 0.0 0.00 0.01 0.01 67 1011.3
20260502024506 48 0 0.0 0.0 0.00 0.01 0.00 67 1010.6
20260502024005 48 0 0.0 0.0 0.00 0.01 0.00 65 1010.6
20260502023505 48 0 0.0 0.0 0.00 0.01 0.00 65 1010.7
20260502023105 47 190 0.0 0.0 0.00 0.01 0.01 64 1011.3
20260502023006 48 0 0.0 0.0 0.00 0.01 0.00 64 1010.6
20260502022506 48 0 0.0 0.0 0.00 0.01 0.00 64 1010.7
20260502021616 47 190 0.0 0.0 0.00 0.01 0.01 64 1011.4
20260502021505 48 0 0.0 0.0 0.00 0.01 0.00 63 1010.7
20260502021005 48 0 0.0 0.0 0.00 0.01 0.00 63 1010.8
20260502020505 48 0 0.0 0.0 0.00 0.01 0.00 63 1010.8
20260502020106 47 190 0.0 0.0 0.00 0.01 0.01 62 1011.5
20260502015506 47 0 0.0 0.0 0.00 0.01 0.00 60 1010.7
20260502015006 47 0 0.0 0.0 0.00 0.01 0.00 60 1010.5
20260502014605 47 190 0.0 0.0 0.00 0.01 0.01 62 1011.2
20260502014505 47 0 0.0 0.0 0.00 0.01 0.00 62 1010.4
20260502014005 47 0 0.0 0.0 0.00 0.01 0.00 62 1010.5
20260502013505 47 0 0.0 0.0 0.00 0.01 0.00 61 1010.4
20260502013108 47 190 0.0 0.0 0.00 0.01 0.01 62 1011.1
20260502013005 47 0 0.0 0.0 0.00 0.01 0.00 61 1010.4
20260502012505 47 0 0.0 0.0 0.00 0.01 0.00 61 1010.3
20260502012005 48 0 0.0 0.0 0.00 0.01 0.00 60 1010.2
20260502011604 47 190 0.0 0.0 0.00 0.01 0.01 61 1010.9
20260502011505 48 0 0.0 0.0 0.00 0.01 0.00 61 1010.2
20260502011006 48 0 0.0 0.0 0.00 0.01 0.00 60 1010.1
20260502010506 48 0 0.0 0.0 0.00 0.01 0.00 59 1010.1
20260502010105 47 190 0.0 0.0 0.00 0.01 0.01 57 1010.8
20260502010006 48 0 0.0 0.0 0.00 0.01 0.00 56 1010.1
20260502005505 48 0 0.0 0.0 0.00 0.01 0.00 57 1010.0
20260502005006 48 0 0.0 0.0 0.00 0.01 0.00 58 1009.9
20260502004606 48 190 0.0 0.0 0.00 0.01 0.01 59 1010.6
20260502004506 49 0 0.0 0.0 0.00 0.01 0.00 58 1009.9
20260502003506 49 0 0.0 0.0 0.00 0.01 0.00 56 1009.8
20260502003105 49 190 0.0 0.0 0.00 0.01 0.01 54 1010.4
20260502002505 50 0 0.0 0.0 0.00 0.01 0.00 53 1009.7
20260502002006 50 0 0.0 0.0 0.00 0.01 0.00 51 1009.6
20260502001605 50 190 0.0 0.0 0.00 0.01 0.01 45 1010.2
20260502001006 51 0 0.0 0.0 0.00 0.01 0.00 44 1009.4
20260502000505 51 0 0.0 0.0 0.00 0.01 0.00 43 1009.3
20260502000116 51 190 0.0 0.0 0.00 0.01 0.01 45 1010.0
20260502000005 52 0 0.0 0.0 0.00 0.01 0.00 44 1009.3
20260501235505 52 0 0.0 0.0 0.00 0.01 0.00 45 1009.3
20260501235005 53 0 0.0 0.0 0.00 0.01 0.00 46 1009.2
20260501234608 53 190 0.0 0.0 0.00 0.01 0.01 41 1009.8
20260501234505 53 0 0.0 0.0 0.00 0.01 0.00 40 1009.2
20260501234005 54 0 0.0 0.0 0.00 0.01 0.00 38 1009.2
20260501233104 54 190 0.0 0.0 0.00 0.01 0.01 36 1009.8
20260501233005 55 0 0.0 0.0 0.00 0.01 0.00 38 1009.0
20260501232506 55 0 0.0 0.0 0.00 0.01 0.00 32 1008.9
20260501232006 56 0 0.0 0.0 0.00 0.01 0.00 32 1008.9
20260501231604 56 190 0.0 0.0 0.00 0.01 0.01 31 1009.6
20260501231506 56 0 0.0 0.0 0.00 0.01 0.00 32 1008.9
20260501231006 57 0 0.0 0.0 0.00 0.01 0.00 32 1008.8
20260501230505 57 0 0.0 0.0 0.00 0.01 0.00 32 1008.7
20260501230107 57 190 0.0 0.0 0.00 0.01 0.01 33 1009.3
20260501230005 57 0 0.0 0.0 0.00 0.01 0.00 35 1008.6
20260501225505 58 0 0.0 0.0 0.00 0.01 0.00 31 1008.5
20260501225005 58 0 0.0 0.0 0.00 0.01 0.00 29 1008.5
20260501224606 58 190 0.0 0.0 0.00 0.01 0.01 29 1009.2
20260501224505 58 0 0.0 0.0 0.00 0.01 0.00 29 1008.5
20260501223505 59 0 0.0 0.0 0.00 0.01 0.00 30 1008.5
20260501223105 59 190 0.0 0.0 0.00 0.01 0.01 29 1009.1
20260501223005 59 0 0.0 0.0 0.00 0.01 0.00 28 1008.4
20260501222505 59 0 0.0 0.0 0.00 0.01 0.00 30 1008.5
20260501222005 60 0 0.0 0.0 0.00 0.01 0.00 30 1008.4
20260501221605 59 190 0.0 0.0 0.00 0.01 0.01 26 1009.1
20260501221506 60 0 0.0 0.0 0.00 0.01 0.00 27 1008.5
20260501221006 60 0 0.0 0.0 0.00 0.01 0.00 26 1008.6
20260501220506 60 0 0.0 0.0 0.00 0.01 0.00 24 1008.5
20260501220104 60 190 0.0 0.0 0.00 0.01 0.01 26 1009.2
20260501220006 60 0 0.0 0.0 0.00 0.01 0.00 25 1008.5
20260501215005 61 0 0.0 0.0 0.00 0.01 0.00 26 1008.5
20260501214605 61 190 0.0 0.0 0.00 0.02 0.01 25 1009.2
20260501214005 61 0 0.0 0.0 0.00 0.01 0.00 25 1008.4
20260501213505 61 0 0.0 0.0 0.00 0.01 0.00 22 1008.4
20260501213107 61 190 0.0 0.0 0.00 0.02 0.01 22 1009.1
20260501213005 61 0 0.0 0.0 0.00 0.01 0.00 23 1008.4
20260501212005 61 191 0.0 4.0 0.00 0.01 0.00 23 1008.5
20260501211608 61 190 0.0 1.0 0.00 0.02 0.01 22 1009.0
20260501211505 61 191 0.0 1.0 0.00 0.02 0.00 22 1008.3
20260501211005 62 191 0.0 2.0 0.00 0.02 0.00 23 1008.3
20260501210505 62 191 0.0 2.0 0.00 0.02 0.00 22 1008.3
20260501210105 61 190 0.0 2.0 0.00 0.02 0.01 23 1009.0
20260501205505 62 191 0.0 2.0 0.00 0.02 0.00 23 1008.2
20260501205005 62 0 0.0 0.0 0.00 0.02 0.00 21 1008.1
20260501204609 61 190 0.0 2.0 0.00 0.02 0.01 22 1008.8
20260501204506 62 191 0.0 1.0 0.00 0.02 0.00 20 1008.2
20260501204005 62 191 0.0 1.0 0.00 0.02 0.00 22 1008.2
20260501203506 62 0 0.0 0.0 0.00 0.02 0.00 22 1008.2
20260501203104 62 190 0.0 0.0 0.00 0.02 0.01 21 1008.8
20260501203006 62 0 0.0 0.0 0.00 0.02 0.00 20 1008.2
20260501202506 63 191 0.0 4.0 0.00 0.02 0.00 21 1008.2
20260501202006 64 191 0.0 4.0 0.00 0.02 0.00 20 1008.2
20260501201613 64 190 0.0 5.0 0.00 0.02 0.01 19 1008.9
20260501201506 64 191 0.0 4.0 0.00 0.02 0.00 21 1008.3
20260501201006 64 191 0.0 2.0 0.00 0.02 0.00 19 1008.3
20260501200506 64 191 0.0 2.0 0.00 0.02 0.00 21 1008.2
20260501200104 64 190 0.0 1.0 0.00 0.02 0.01 22 1008.9
20260501200006 64 190 0.0 2.0 0.00 0.02 0.00 19 1008.2
20260501195506 65 191 0.0 2.0 0.00 0.02 0.00 19 1008.1
20260501195005 65 0 0.0 0.0 0.00 0.02 0.00 21 1008.2